Willmar, MN

10:17 PM CST on November 22, 2017 (GMT -0600)
Willmar

Weather History for KBDH - February, 2013

Change the Weather History Date:

Wednesday, February 20, 2013

  Actual Average (KBBB) Record (KBBB)
Temperature  
Mean Temperature 0 °F -  
Max Temperature 12 °F 30 °F 56 °F (1981)
Min Temperature -11 °F 10 °F -29 °F (2008)
Degree Days  
Heating Degree Days 64    
Moisture  
Dew Point -13 °F    
Average Humidity 51    
Maximum Humidity 59    
Minimum Humidity 44    
Precipitation  
Precipitation 0.00 in - - ()
Sea Level Pressure  
Sea Level Pressure 30.40 in    
Wind  
Wind Speed 6 mph (East)    
Max Wind Speed 10 mph    
Max Gust Speed -    
Visibility 10 miles    
Events      
Averages and records for this station are not official NWS values.
T = Trace of Precipitation, MM = Missing Value Source: NWS Daily Summary

Daily Weather History Graph

Daily Weather History Graph

Search for Another Location

Airport or City:

Trip Planner

Search our weather history database for the weather conditions in past years. The results will help you decide how hot, cold, wet, or windy it might be!

Date:

Astronomy

Feb. 20, 2013 Rise Set
Actual Time 7:13 AM CST 5:55 PM CST
Civil Twilight 6:43 AM CST 6:25 PM CST
Nautical Twilight 6:09 AM CST 7:00 PM CST
Astronomical Twilight 5:35 AM CST 7:34 PM CST
Moon 1:09 PM CST (2/20) 3:42 AM CST (2/20)
Length of Visible Light 11h 42m
Length of Day
10h 42m
Waxing Gibbous, 76% of the Moon is Illuminated
Feb 20
Waxing Gibbous
Feb 25
Full
Mar 4
Last Quarter
Mar 11
New
Mar 19
First Quarter

Hourly Weather History & Observations

Time (CST) Temp. Windchill Dew Point Humidity Pressure Visibility Wind Dir Wind Speed Gust Speed Precip Events Conditions
12:15 AM -7.6 °F -25.7 °F -20.2 °F 54% 30.39 in 10.0 mi WNW 10.4 mph - N/A   Clear
12:35 AM -7.6 °F -23.4 °F -20.2 °F 54% 30.40 in 10.0 mi WNW 8.1 mph - N/A   Clear
12:55 AM -9.4 °F -25.6 °F -20.2 °F 59% 30.41 in 10.0 mi WNW 8.1 mph - N/A   Clear
1:15 AM -7.6 °F -23.4 °F -20.2 °F 54% 30.41 in 10.0 mi WNW 8.1 mph - N/A   Clear
1:35 AM -9.4 °F -24.3 °F -20.2 °F 59% 30.41 in 10.0 mi NW 6.9 mph - N/A   Clear
1:55 AM -9.4 °F -25.6 °F -22.0 °F 54% 30.41 in 10.0 mi West 8.1 mph - N/A   Clear
2:15 AM -9.4 °F -25.6 °F -20.2 °F 59% 30.42 in 10.0 mi WNW 8.1 mph - N/A   Clear
2:35 AM -9.4 °F -24.3 °F -22.0 °F 54% 30.42 in 10.0 mi WNW 6.9 mph - N/A   Clear
2:55 AM -9.4 °F -26.8 °F -20.2 °F 59% 30.42 in 10.0 mi WNW 9.2 mph - N/A   Clear
3:15 AM -9.4 °F -25.6 °F -22.0 °F 54% 30.42 in 10.0 mi West 8.1 mph - N/A   Clear
3:35 AM -9.4 °F -22.7 °F -22.0 °F 54% 30.41 in 10.0 mi NW 5.8 mph - N/A   Clear
3:55 AM -9.4 °F -22.7 °F -22.0 °F 54% 30.42 in 10.0 mi West 5.8 mph - N/A   Clear
4:15 AM -11.2 °F -24.8 °F -23.8 °F 54% 30.42 in 10.0 mi West 5.8 mph - N/A   Clear
4:35 AM -11.2 °F -23.0 °F -23.8 °F 54% 30.42 in 10.0 mi WNW 4.6 mph - N/A   Clear
4:55 AM -11.2 °F -23.0 °F -23.8 °F 54% 30.42 in 10.0 mi WNW 4.6 mph - N/A   Clear
5:16 AM -11.2 °F -23.0 °F -23.8 °F 54% 30.42 in 10.0 mi NW 4.6 mph - N/A   Clear
5:35 AM -11.2 °F -23.0 °F -23.8 °F 54% 30.42 in 10.0 mi West 4.6 mph - N/A   Clear
5:55 AM -11.2 °F -23.0 °F -23.8 °F 54% 30.42 in 10.0 mi West 4.6 mph - N/A   Clear
6:16 AM -11.2 °F -24.8 °F -23.8 °F 54% 30.43 in 10.0 mi NW 5.8 mph - N/A   Clear
6:35 AM -11.2 °F -20.6 °F -23.8 °F 54% 30.42 in 10.0 mi NNE 3.5 mph - N/A   Clear
6:55 AM -11.2 °F - -23.8 °F 54% 30.42 in 10.0 mi Calm Calm - N/A   Clear
7:16 AM -11.2 °F - -23.8 °F 54% 30.42 in 10.0 mi Calm Calm - N/A   Clear
7:35 AM -11.2 °F - -23.8 °F 54% 30.42 in 10.0 mi Calm Calm - N/A   Clear
7:55 AM -11.2 °F -20.6 °F -23.8 °F 54% 30.42 in 10.0 mi NW 3.5 mph - N/A   Clear
8:16 AM -11.2 °F -20.6 °F -23.8 °F 54% 30.41 in 10.0 mi NNW 3.5 mph - N/A   Clear
8:35 AM -9.4 °F -18.6 °F -22.0 °F 54% 30.41 in 10.0 mi NNE 3.5 mph - N/A   Clear
8:55 AM -7.6 °F -16.5 °F -20.2 °F 54% 30.41 in 10.0 mi NNE 3.5 mph - N/A   Clear
9:15 AM -5.8 °F - -18.4 °F 55% 30.42 in 10.0 mi Calm Calm - N/A   Clear
9:35 AM -0.4 °F -13.4 °F -14.8 °F 51% 30.42 in 10.0 mi ENE 6.9 mph - N/A   Clear
9:55 AM 1.4 °F -6.2 °F -11.2 °F 56% 30.42 in 10.0 mi ENE 3.5 mph - N/A   Clear
10:15 AM 3.2 °F - -11.2 °F 51% 30.42 in 10.0 mi Calm Calm - N/A   Clear
10:35 AM 5.0 °F -5.6 °F -11.2 °F 47% 30.43 in 10.0 mi ESE 5.8 mph - N/A   Clear
10:55 AM 5.0 °F -5.6 °F -11.2 °F 47% 30.43 in 10.0 mi ESE 5.8 mph - N/A   Clear
11:15 AM 6.8 °F -2.0 °F -9.4 °F 48% 30.44 in 10.0 mi SSE 4.6 mph - N/A   Clear
11:35 AM 6.8 °F -2.0 °F -9.4 °F 48% 30.45 in 10.0 mi SSE 4.6 mph - N/A   Clear
11:55 AM 6.8 °F - -9.4 °F 48% 30.44 in 10.0 mi Calm Calm - N/A   Clear
12:15 PM 6.8 °F -2.0 °F -9.4 °F 48% 30.44 in 10.0 mi SE 4.6 mph - N/A   Clear
12:35 PM 6.8 °F -2.0 °F -9.4 °F 48% 30.43 in 10.0 mi East 4.6 mph - N/A   Clear
12:55 PM 8.6 °F -1.3 °F -7.6 °F 48% 30.42 in 10.0 mi SE 5.8 mph - N/A   Clear
1:15 PM 8.6 °F 0.1 °F -7.6 °F 48% 30.42 in 10.0 mi SSE 4.6 mph - N/A   Clear
1:35 PM 8.6 °F 0.1 °F -7.6 °F 48% 30.42 in 10.0 mi SE 4.6 mph - N/A   Clear
1:55 PM 8.6 °F 2.0 °F -7.6 °F 48% 30.42 in 10.0 mi SSE 3.5 mph - N/A   Clear
2:15 PM 10.4 °F 2.2 °F -7.6 °F 44% 30.42 in 10.0 mi SSE 4.6 mph - N/A   Clear
2:35 PM 10.4 °F 4.0 °F -5.8 °F 48% 30.41 in 10.0 mi SE 3.5 mph - N/A   Clear
2:55 PM 10.4 °F 2.2 °F -5.8 °F 48% 30.41 in 10.0 mi SSE 4.6 mph - N/A   Clear
3:15 PM 10.4 °F 4.0 °F -5.8 °F 48% 30.40 in 10.0 mi SSE 3.5 mph - N/A   Clear
3:35 PM 12.2 °F 2.9 °F -4.0 °F 48% 30.39 in 10.0 mi NE 5.8 mph - N/A   Clear
3:56 PM 12.2 °F 4.3 °F -5.8 °F 45% 30.39 in 10.0 mi ENE 4.6 mph - N/A   Clear
4:15 PM 12.2 °F 1.7 °F -5.8 °F 45% 30.38 in 10.0 mi ENE 6.9 mph - N/A   Clear
4:36 PM 12.2 °F 1.7 °F -5.8 °F 45% 30.38 in 10.0 mi ENE 6.9 mph - N/A   Clear
4:55 PM 12.2 °F -0.2 °F -5.8 °F 45% 30.38 in 10.0 mi ENE 9.2 mph - N/A   Clear
5:15 PM 12.2 °F 2.9 °F -5.8 °F 45% 30.38 in 10.0 mi ENE 5.8 mph - N/A   Clear
5:35 PM 12.2 °F 0.7 °F -5.8 °F 45% 30.37 in 10.0 mi East 8.1 mph - N/A   Clear
5:55 PM 12.2 °F 4.3 °F -5.8 °F 45% 30.38 in 10.0 mi East 4.6 mph - N/A   Clear
6:15 PM 12.2 °F 6.1 °F -5.8 °F 45% 30.38 in 10.0 mi ESE 3.5 mph - N/A   Clear
6:35 PM 10.4 °F 0.8 °F -5.8 °F 48% 30.38 in 10.0 mi SSE 5.8 mph - N/A   Clear
6:55 PM 8.6 °F 0.1 °F -5.8 °F 52% 30.38 in 10.0 mi ESE 4.6 mph - N/A   Clear
7:15 PM 8.6 °F 2.0 °F -5.8 °F 52% 30.38 in 10.0 mi ESE 3.5 mph - N/A   Clear
7:35 PM 8.6 °F -1.3 °F -5.8 °F 52% 30.37 in 10.0 mi East 5.8 mph - N/A   Clear
7:55 PM 8.6 °F -3.7 °F -5.8 °F 52% 30.35 in 10.0 mi East 8.1 mph - N/A   Clear
8:15 PM 10.4 °F -1.5 °F -5.8 °F 48% 30.35 in 10.0 mi East 8.1 mph - N/A   Clear
8:35 PM 10.4 °F 0.8 °F -5.8 °F 48% 30.34 in 10.0 mi East 5.8 mph - N/A   Clear
8:55 PM 10.4 °F -0.4 °F -5.8 °F 48% 30.34 in 10.0 mi East 6.9 mph - N/A   Clear
9:15 PM 10.4 °F 2.2 °F -5.8 °F 48% 30.35 in 10.0 mi East 4.6 mph - N/A   Clear
9:35 PM 8.6 °F 0.1 °F -5.8 °F 52% 30.35 in 10.0 mi ESE 4.6 mph - N/A   Clear
9:55 PM 8.6 °F - -7.6 °F 48% 30.36 in 10.0 mi Calm Calm - N/A   Clear
10:15 PM 6.8 °F -4.8 °F -7.6 °F 52% 30.36 in 10.0 mi East 6.9 mph - N/A   Clear
10:35 PM 10.4 °F -1.5 °F -5.8 °F 48% 30.36 in 10.0 mi East 8.1 mph - N/A   Clear
10:56 PM 10.4 °F -0.4 °F -5.8 °F 48% 30.35 in 10.0 mi East 6.9 mph - N/A   Clear
11:15 PM 10.4 °F -1.5 °F -5.8 °F 48% 30.36 in 10.0 mi East 8.1 mph - N/A   Clear
11:35 PM 10.4 °F -3.3 °F -5.8 °F 48% 30.35 in 10.0 mi East 10.4 mph - N/A   Clear
11:56 PM 10.4 °F -1.5 °F -5.8 °F 48% 30.35 in 10.0 mi East 8.1 mph - N/A   Clear